Showing default

MISRSAT-2, 58497

Orbit data source: Space-Track

MISRSAT-2, 58497 is a payload satellite owned by EgSA (EG) in SSO that was launched on Mon, 04 Dec 2023 UTC via a CHANG ZHENG 2C launch vehicle from the Jiuquan Satellite Launch Center, China (JSC). Payload-class satellites include a variety of spacecraft equipped with specific instruments for various scientific and technological missions. These include communications satellites like Starlink; space stations such as the ISS; scientific satellites like the Hubble; Earth observation satellites from companies like Planet Labs, Umbra, and HawkEye 360; GPS; miniature CubeSats for education and research; and military/defense satellites.

Loading next visibility...
Identifier
58497, 2023-187B
Orbit
SSO
Country
Flag of EGEG / EGYP
Related business
Manufacturer
NCSC/DFHZ
Mission
Operational Civil Imaging
Bus & Motor
CAST-2000?, Unknown motor
Mass
~350 kg wet, ~350 kg dry
Launch date (UTC)
2023-12-04 (3 years ago)
Launch vehicle
CHANG ZHENG 2C
Launch site
Jiuquan Satellite Launch Center, China (JSC)
Object type
Payload
Rocket body
Debris
Shape & HBR
Box + 2 Pan, 2.0 m
Radar Cross Section
2.815 m², Large (>1 m²)

Expand to show TLE details & history
Last TLE update: 13 hours ago

TLE from 13 hours ago
0 MISRSAT-2
1 58497U 23187B   26172.51077683  .00000836  00000-0  10868-3 0  9992
2 58497  97.9271 254.4076 0012181 128.6841 231.5464 14.83251962137682
Epoch: 2026-06-21T12:15Z
TLE epoch observation values (Epoch: 2026-06-21T12:15:31.118Z)
Latitude
-0.00002°
Longitude
160.81794°
Altitude
627.411 km
Speed
7.542 km/s
True Right ascension
16h 57m 37s
True Declination
0° 00' 00"
Sunlit
Object was in full shadow at epoch
Visualization orbit readout
Latitude
Unknown
Longitude
Unknown
Altitude
Unknown
Speed
Unknown
Apparent Right ascension
Unknown
Apparent Declination
Unknown
Sunlit
N/A
Visualization observer readout
Local Sidereal Time
12:45:07
Azimuth
Unknown
Elevation
Unknown
Doppler factor
Unknown
Orbital elements
Apogee altitude
624.635 km
Perigee altitude
607.596 km
Semi-major axis
6,994.253 km
Eccentricity
0.00122
Inclination
97.9271°
RAAN
254.4076°
Arg. of periapsis
128.6841°
True anomaly
231.43719°
Mean anomaly
231.5464°
Eccentric anomaly
231.49179°
Mean motion
3.71049 °/min
Orbital period
97.02 mins
BSTAR
0.00010868
Loading maneuver chart data...
Computing Atmospheric mass density...
Loading historical data...
Loading historical data...
Loading historical data...
Loading historical data...
Loading historical data...
Loading historical data...
Loading historical data...
Other satellites on launch #187 in the year 2023 (2023-12-04 UTC)

Documentation

Showing up to 5 results
|